Вернуться в каталог

STARLINK-3996

АктивенСвязьVLEO
NORAD 52617·PAYLOAD·🇺🇸 United States

Запущен May 14, 2022 с Cape Canaveral Space Force Station

Loading…

Ближайшие Пролёты (ближайшие 24 часа)

TLE

СвежийSource: CelesTrak SupGP

Эпоха: Sep 14, 2026, 21:07 UTC

1 52617C 22052V   26257.88034722 -.00039225  00000+0 -24606-2 0  2577
2 52617  53.1572 139.1842 0001480  93.0686  15.1822 15.08842805    10

Отслеживайте STARLINK-3996 в реальном времени с AllMySat

Download on the App Store